Flag for U.S.A. Weather past 2 weeks in Corpus Christi, Texas, U.S.A.

Now
81 °F

Broken clouds.


Feels Like: 88 °F
Forecast: 78 / 88 °F
Wind: 12 mph from South

Location: Corpus Christi International Airport

Current Time: Jul 5, 2015 at 9:05:20 AM

Latest Report: Jul 5, 2015 at 7:51 AM


Visibility: 10 mi

Pressure: 30.01 "Hg

Humidity: 88%

Dew point: 77 °F

Location of Corpus ChristiLocation

Historic Weather in Corpus Christi — Graph

°F

Corpus Christi temperature yesterday

Maximum temperature yesterday: 91 °F (at 3:51 PM)
Minimum temperature yesterday: 78 °F (at 3:51 AM)
Average temperature yesterday: 83 °F

Past Weeks' High & Low Weather Summary

 TemperatureHumidityPressure
High92 °F (Jun 27, 12:51 PM)97% (Jul 3, 5:51 AM)30.13 "Hg (Jul 3, 5:51 AM)
Low72 °F (Jul 2, 4:51 AM)56% (Jun 23, 1:51 PM)29.90 "Hg (Jul 4, 6:51 PM)
Average82 °F79%30.00 "Hg
* Reported Jun 20 7:51 AM — Jul 5 7:51 AM, Corpus Christi, Weather by CustomWeather, © 2015

Note: Actual official high and low records may vary slightly from our data, if they occured in-between our weather recording intervals... More about our weather records

Advertising

Corpus Christi weather history for previous 24 hours

 ConditionsComfort  
Time TempWeatherWind HumidityBarometerVisibility
7:51 AM
Sun, Jul 5
81 °FBroken clouds.12 mph88%30.01 "Hg10 mi
6:51 AM79 °FPartly cloudy.10 mph94%30.00 "Hg10 mi
5:51 AM79 °FPassing clouds.8 mph90%29.99 "Hg10 mi
4:51 AM79 °FPassing clouds.8 mph90%29.98 "Hg10 mi
3:51 AM78 °FClear.9 mph87%29.98 "Hg10 mi
2:51 AM77 °FPassing clouds.8 mph88%29.98 "Hg10 mi
1:51 AM78 °FPassing clouds.9 mph84%29.98 "Hg10 mi
12:51 AM78 °FPassing clouds.10 mph82%30.00 "Hg10 mi
11:51 PM
Sat, Jul 4
78 °FPassing clouds.9 mph82%30.00 "Hg10 mi
10:51 PM78 °FPassing clouds.8 mph82%29.99 "Hg10 mi
9:51 PM79 °FPassing clouds.9 mph79%29.96 "Hg10 mi
8:51 PM81 °FPartly sunny.10 mph69%29.93 "Hg10 mi
7:51 PM85 °FPartly sunny.17 mph57%29.93 "Hg10 mi
6:51 PM86 °FBroken clouds.16 mph70%29.90 "Hg10 mi
5:51 PM88 °FBroken clouds.18 mph67%29.91 "Hg10 mi
4:51 PM89 °FBroken clouds.21 mph63%29.94 "Hg10 mi
3:51 PM91 °FBroken clouds.18 mph61%29.96 "Hg10 mi
2:51 PM90 °FBroken clouds.20 mph61%29.97 "Hg10 mi
1:51 PM90 °FBroken clouds.22 mph61%29.98 "Hg10 mi
12:51 PM90 °FPartly sunny.21 mph59%29.99 "Hg10 mi
11:51 AM87 °FPartly sunny.18 mph67%29.99 "Hg10 mi
10:51 AM87 °FPartly sunny.16 mph67%29.98 "Hg10 mi
9:51 AM85 °FPartly sunny.15 mph75%29.98 "Hg10 mi
Weather by CustomWeather, © 2015

See weather overviewHow to use our weather pages